Regional Weather Roundup
Issued by NWS Wakefield, VA

Home | Current Version | Previous Version | Text Only | Print | Product List | Glossary Off
Versions: 1 2 3 4 5 6 7 8 9 10 11 12 13 14 15 16 17 18 19 20 21 22 23 24 25 26 27 28 29 30 31 32 33 34 35 36 37 38 39 40 41 42 43 44 45 46 47 48 49 50

000
ASUS41 KAKQ 210315
RWRAKQ

REGIONAL WEATHER ROUNDUP
NATIONAL WEATHER SERVICE WAKEFIELD VA
1100 PM EDT THU JUL 20 2017

Note: "fair" indicates few or no clouds below 12,000 feet with no
significant weather and/or obstructions to visibility. * = Denotes
station may not report precipitation (e.g., rain,snow,etc.),
thunder or fog.

VAZ042-051-052>054-056-210400-
NORTHERN VIRGINIA

CITY           SKY/WX    TMP DP  RH WIND       PRES   REMARKS
WASH NATIONAL  MOCLDY    87  76  69 S7        29.93R HX  97
DULLES         CLOUDY    85  70  60 NW9       29.94S
FORT BELVOIR   MOCLDY    81  76  84 SE3       29.93R
QUANTICO       CLEAR     84  80  88 NW12      29.94R HX  97
FREDERICKSBRG* PTCLDY    80  75  85 CALM      29.93S
STAFFORD*      CLOUDY    74  74 100 NW5       29.98R FOG
WARRENTON      PTCLDY    77  71  79 CALM      29.95R
CULPEPER*      PTCLDY    79  75  89 CALM      29.96R
MANASSAS*      MOCLDY    80  74  81 CALM      29.94S
LEESBURG*      CLOUDY    86  72  62 NW9       29.96R
WINCHESTER     MOCLDY    81  64  57 NW8       29.98S
FRONT ROYAL*   MOCLDY    79  68  69 S5        29.98R
LURAY*         PTCLDY    81  68  65 CALM      30.00R
$$

VAZ048-049-060>072-079>083-210400-
CENTRAL AND SOUTH CENTRAL VIRGINIA

CITY           SKY/WX    TMP DP  RH WIND       PRES   REMARKS
RICHMOND       MOCLDY    81  72  74 S6        29.96R
CHESTERFIELD*  FAIR      81  74  79 CALM      29.97R
PETERSBURG*    CLOUDY    77  72  82 CALM      29.98R
HANOVER        CLOUDY    79  70  74 CALM      29.97R
TAPPAHANNOCK*  CLOUDY    82  60  46 S5        29.96R
QUINTON*       FAIR      82  74  75 CALM      29.95R
CHARLOTTSVILLE PTCLDY    80  71  74 CALM      29.97R
GORDONSVILLE*  PTCLDY    77  68  74 CALM      29.96R
ORANGE*        CLEAR     73  70  88 CALM      29.96R
LOUISA*        PTCLDY    73  64  73 CALM      29.96R
BUMPASS*       FAIR      77  75  94 CALM      29.96R
FARMVILLE*     CLOUDY    78  70  77 CALM      29.97R
CREWE*         FAIR      75  71  87 CALM      29.97S
FORT PICKETT*  FAIR     N/A N/A N/A SW6       29.99R
CHASE CITY*    FAIR      79  74  85 SE3       29.99S
CLARKSVILLE*   FAIR      77  77 100 S3        29.99R
SOUTH HILL*    PTCLDY    77  73  86 S3        30.05R
LAWRENCEVILLE* FAIR      79  71  75 S3        29.98S
EMPORIA*       CLOUDY    77  72  83 CALM      29.99S
$$

VAZ088>098-210400-
SOUTHEAST VIRGINIA

CITY           SKY/WX    TMP DP  RH WIND       PRES   REMARKS
NORFOLK        PTCLDY    82  73  74 S7        29.97R
VIRGINIA BEACH CLOUDY    81  72  74 S7        29.97R
NORFOLK NAVAL  CLOUDY    84  72  67 S6        29.98R
WEST POINT*    PTCLDY    84  72  65 S6        29.96S
SALUDA*        FAIR      83  75  79 S6        29.95R
NEWPORT NEWS   CLOUDY    84  73  69 S9        29.96S
LANGLEY AFB    PTCLDY    84  74  70 S13       29.96S
FORT EUSTIS    CLOUDY    84  75  75 S6        29.94S
WILLIAMSBURG*  CLOUDY    86  75  70 CALM      29.98R HX  95
HR EXEC AP*    FAIR      79  72  78 SW6       29.96R
FRANKLIN*      CLOUDY    79  73  83 S3        29.99R
US460-WAKEFLD  MOCLDY    81  75  82 S3        29.97S
$$

VAZ020-022-025-037-045-210400-
WEST CENTRAL AND SOUTHWEST VIRGINIA

CITY           SKY/WX    TMP DP  RH WIND       PRES   REMARKS
STAUNTON*      PTCLDY    76  70  84 CALM      30.05R
WAYNESBORO*    PTCLDY    77  70  78 CALM      30.05R
HOT SPRINGS VA CLEAR     70  55  60 NW8       30.22R
LYNCHBURG      MOCLDY    76  72  87 CALM      30.02R
DANVILLE       CLOUDY    76  74  93 CALM      30.00R
SOUTH BOSTON*  FAIR      78  74  89 CALM      29.99S
MARTINSVILLE   MOCLDY    76  74  93 CALM      30.05S
ROANOKE        CLOUDY    81  67  62 W3        30.07R
BLACKSBURG     CLOUDY    75  65  70 CALM      30.15S
DUBLIN*        MOCLDY    77  58  51 W3        30.14R
MARION*        CLOUDY    71  64  78 CALM      30.19S
HILLSVILLE*    PTCLDY    75  61  60 CALM      30.16S
RICHLANDS*     FAIR      74  62  65 CALM      30.18S
WISE*          CLOUDY    73  63  68 CALM      30.19S
ABINGDON*      CLOUDY    76  68  75 CALM      30.14S
$$

MDZ021>025-VAZ099-100-210400-
SOUTHERN MARYLAND AND THE DELMARVA PENINSULA

CITY           SKY/WX    TMP DP  RH WIND       PRES   REMARKS
PATUXENT RIVER MOCLDY    82  77  84 S8        29.93S
BAY BRIDGE APT CLEAR     86  73  66 S6        29.92S
LEONARDTOWN    PTCLDY   N/A N/A N/A S3        29.95S
DOVER          PTCLDY    82  82  99 S10       29.90F HX  96
GEORGETOWN     PTCLDY    80  73  79 SW3       29.94S
EASTON         CLEAR     83  74  75 SW5       29.96
CAMBRIDGE      CLEAR     79  75  89 CALM      29.93S
SALISBURY      NOT AVBL
OCEAN CITY     CLEAR     81  75  82 SW8       29.94F
WALLOPS ISLAND CLEAR     78  75  90 S9        29.95S
ACCOMACK*      CLOUDY    81  75  83 S7        29.96R
$$

NCZ012>017-030>032-210400-
NORTH CENTRAL AND EASTERN NORTH CAROLINA

CITY           SKY/WX    TMP DP  RH WIND       PRES   REMARKS
ROANOKE RAPIDS FAIR      77  72  83 CALM      29.99R
RALEIGH        MOCLDY    82  71  69 CALM      30.01R
ELIZABETH CITY CLOUDY    80  77  90 S7        29.99R
AHOSKIE*         N/A     78  73  86 CALM      29.99R
EDENTON*       CLOUDY    83  76  81 S9        30.00S
CURRITUCK*     CLOUDY    81  77  89 S5        30.00R
KILL DEVIL HLS CLOUDY    80  73  80 CALM      30.00R
MANTEO         CLOUDY    80  74  82 SW12      30.02R
CAPE HATTERAS  CLOUDY    81  74  79 SW9       30.03R
TARBORO*       NOT AVBL
GOLDSBORO      CLEAR     81  80  97 S5        30.00R
WASHINGTON     PTCLDY    80  73  80 S5        30.01S
GREENVILLE     CLEAR     81  73  78 S10       30.02S
NEW BERN       CLEAR     78  75  90 S7        30.03R
WILMINGTON     CLEAR     79  76  90 SW7       30.03S
$$

VAZ048-210400-
ELSEWHERE

CITY           SKY/WX    TMP DP  RH WIND       PRES   REMARKS
HARRISBURG PA  CLOUDY    83  70  64 NW5       29.91S
BALTIMORE      CLOUDY    87  71  58 S6        29.92R
ANNAPOLIS      PTCLDY    85  77  77 SW5       29.92S HX  95
ANDREWS AFB    MOCLDY    82  73  73 S5        29.93S
PHILADELPHIA   CLOUDY    82  68  62 E6        29.91S
HENDERSON NC   CLEAR     74  69  81 S5        30.01R
GREENSBORO     MOCLDY    82  73  74 SW5       30.02R
ROCKY MOUNT    CLEAR     79  74  84 S6        30.00R
$$

VAZ100-210400-
MARINE

STATION/POSITION TIME  TEMP    WIND        PRES    WAVE   SWELL
                       AIR SEA DIR/SP/G            HT/PER HT/PER
                 (UTC) (F)     (DEG/KT/KT) (MB)    (FT/S) (FT/S)
BRANDYWINE LGT   0248          240/ 13/ 13   N/A
CAPE MAY NJ      0248   80 76  210/  5/  8 1012.8F
LEWES DE         0248   83 75  230/  7/ 11 1013.1F
15NM E FENWICK I 0250   76 76  220/ 10/ 12 1014.3S   2/ 7   2/ 7
OCEAN-CITY-INLET 0248   73 69  220/  8/  9 1014.2F
WACHAPREAGUE VA  0248   81 86  200/  6/  9 1014.3S
THOMAS POINT MD  0300   84 82  200/  9/ 10   N/A
GOOSES REEF MD   0250   84     220/  8/ 10 1014.1S
COVE POINT MD    0248   83     200/  8/ 10 1014.1S
SOLOMONS ISLAND  0230   84 85  200/  7/  9   N/A
BISHOPS HEAD MD  0248   85 87  200/ 12/ 15 1013.7R
PINEY POINT MD   0248          220/ 10/ 11   N/A
POTOMAC MD       0250   84     220/ 10/ 12 1012.8R
CAMBRIDGE MD     0248   82 87              1014.3S
LEWISETTA VA     0248   83 87  230/  8/ 10 1013.7R
RAPPAHANNOCK LGT 0248          180/ 13/ 14 1014.8R
STINGRAY PT      0250   86     230/ 10/ 14 1014.3R
YORK RVR RNG VA  0248   86     220/ 12/ 14 1014.6R
YORKTOWN VA      0248   85 84  210/ 10/ 13 1014.1R
JAMESTOWN VA     0250          210/ 12/ 14   N/A
DOMINION TERM VA 0248   83     200/  9/ 11 1014.9R
KIPTOPEKE VA     0248      78  180/  7/  8   N/A
CHES BAY BRIDGE  0248   83 70  200/  9/ 12 1014.7R
CAPE HENRY VA    0248   82     190/  9/ 13   N/A
WILLOUBY STN VA  0248   85     200/ 13/ 15 1014.8R
S CRANEY ISL VA  0248   84     200/  7/  9 1014.8R
CAPE HENRY BUOY  0230      74                N/A     2/13   2/13
1ST LANDING BUOY 0250   81                 1014.6R
64NM E OF VA BCH 0250   80 80  220/ 12/ 14 1016.0R   3/ 8   2/ 8
DUCK PIER NC     0248   82 65  200/ 12/ 15 1015.2R
44100 DUCK FRF   0205      77                N/A     2/13   2/13
44056 DUCK FRF   0230      69                N/A     2/15   2/15
OREGON INLET NC  0248          200/ 11/ 12   N/A
HATTERAS NC      0248   80 80  220/  8/ 12 1016.8R
DIAMOND SHLS NC  0250   83 85  210/ 12/ 16 1016.7R   2/ 8   2/ 8
CAPE LOOKOUT NC  0300   81     220/  7/  9 1016.8R
$$



USA.gov is the U.S. government's official web portal to all federal, state and local government web resources and services.